Regional Weather Roundup
Issued by NWS

Home | Current Version | Previous Version | Graphics & Text | Print | Product List | Glossary On
Versions: 1 2 3 4 5 6 7 8 9 10 11 12 13 14 15 16 17 18 19 20 21 22 23 24 25 26 27 28 29 30 31 32 33 34 35 36 37 38 39 40 41 42 43 44 45 46 47 48 49 50
000
ASUS45 KBOU 261707
RWRCO

WEATHER ROUNDUP FOR COLORADO
NATIONAL WEATHER SERVICE DENVER/BOULDER CO
1000 AM MST FRI DEC 26 2014

NOTE: "FAIR" INDICATES FEW OR NO CLOUDS BELOW 12000 FEET WITH NO
SIGNIFICANT WEATHER AND/OR OBSTRUCTIONS TO VISIBILITY.

COZ001>005-013-030-031-261800-
...NORTHWEST COLORADO...

CITY           SKY/WX    TMP DP  RH WIND       PRES   REMARKS
CRAIG          LGT SNOW  15  10  80 SW8       29.83R WCI   4
HAYDEN         PTSUNNY   16   9  73 NW7       29.80R WCI   6
MEEKER         CLOUDY    16  10  77 SW3       29.82R
MOUNT WERNER   NOT AVBL
STEAMBOAT SPGS CLOUDY    15  11  83 CALM      29.79R
WALDEN         CLOUDY    12   5  73 NE5       29.74R WCI   4
$$

COZ006>008-011-261800-
...WEST CENTRAL VALLEYS...

CITY           SKY/WX    TMP DP  RH WIND       PRES   REMARKS
GRAND JUNCTION PTSUNNY   25  22  88 N5        29.83R FOG     WCI  19
MONTROSE       CLOUDY    25  21  85 E3        29.82R FOG
EAGLE          PTSUNNY   23  21  93 W6        29.78R WCI  16
RIFLE          LGT SNOW  23  16  74 NW8       29.82R WCI  14
DELTA          CLOUDY    29  25  84 CALM      29.82R
NUCLA          LGT SNOW  25  19  80 S3        29.84R
$$

COZ017>023-064>068-261800-
...SOUTHWEST COLORADO...

CITY           SKY/WX    TMP DP  RH WIND       PRES   REMARKS
DURANGO        LGT SNOW  23  20  88 W10       29.73R VSB 3/4 WCI  12
CORTEZ         CLOUDY    21  17  84 E6        29.80R WCI  13
PAGOSA SPRINGS CLOUDY    23  19  85 SW10      29.72R WCI  12
TELLURIDE      LGT SNOW  12   8  84 SW5       29.70R WCI   4
WOLF CREEK PAS CLOUDY     5   3  92 MISG      29.60R
$$

COZ009-010-012-014-032>034-037-058>063-261800-
...CENTRAL COLORADO...

CITY           SKY/WX    TMP DP  RH WIND       PRES   REMARKS
ASPEN          PTSUNNY   19  15  84 NW5       29.70R WCI  12
BUENA VISTA    LGT SNOW  15   8  73 CALM      29.78R
COPPER MTN     LGT SNOW   9   1  72 S6        29.60S WCI  -1
BERTHOUD PASS  CLOUDY    -8 -13  77 MISG      29.61R HAZE
COTTONWOOD PAS LGT SNOW  12   7  79 E3        29.71R VSB 1
GUNNISON       CLOUDY    12   7  79 W3        29.76R
KREMMLING      LGT SNOW  18  12  79 CALM      29.78R
LEADVILLE      LGT SNOW   5   2  87 S12       29.67R FOG     WCI -11
MONARCH PASS   FOG        1  -4  78 MISG      29.69R VSB 3/4
SALIDA         CLOUDY    17  13  84 SE8       29.88R WCI   6
SUNLIGHT       LGT SNOW N/A N/A N/A MISG      29.67R VSB 1
WILKERSON PASS LGT SNOW N/A N/A N/A CALM      29.69R VSB 1
$$

COZ069>075-261800-
...SAN LUIS VALLEY/SANGRE DE CRISTO MOUNTAINS...

CITY           SKY/WX    TMP DP  RH WIND       PRES   REMARKS
ALAMOSA        CLOUDY    23  16  74 SE14      29.71R WCI  11
LA VETA PASS   NOT AVBL
SAGUACHE       LGT SNOW  19  18  93 CALM      29.72R VSB 3/4
$$

COZ035-036-038>040-261800-
...NORTHERN COLORADO FRONT RANGE...

CITY           SKY/WX    TMP DP  RH WIND       PRES   REMARKS
DENVER INTL AP LGT SNOW  18  14  84 NE7       29.97R FOG     WCI   9
DMNS CITY PARK   N/A     18  15  88 NE6       29.98R WCI  10
AURORA         LGT SNOW  15  14  98 N5        29.96R FOG     WCI   7
FRONT RANGE AP LGT SNOW  18  16  93 NW5       29.97R WCI  11
ERIE MUNI ARPT LGT SNOW  19  16  88 N5        29.99R WCI  12
BOULDER MUN AP LGT SNOW  19  18  93 CALM      29.98R
CENTENNIAL     LGT SNOW  16  12  84 N5        29.94R FOG     WCI   9
BROOMFIELD     LGT SNOW  18  16  93 NE7       29.96  VSB 1   WCI   8
FORT COLLINS   MOSUNNY   18  14  86 E3        30.01R
LONGMONT       LGT SNOW  24  17  73 N3        30.02R
$$

COZ041-046-047-076>085-087-088-261800-
...PIKES PEAK/PALMER DIVIDE AND SOUTHERN FOOTHILLS...

CITY           SKY/WX    TMP DP  RH WIND       PRES   REMARKS
COLO. SPRINGS  FLURRIES  20  11  68 N12       29.90R WCI   8
A. F. ACADEMY  FLURRIES  16   9  74 N12       29.87F WCI   3
ELLICOTT       NOT AVBL
FALCON         LGT SNOW  17  10  74 N9        29.87S WCI   5
FORT CARSON    MIX PCPN  21  10  63 N13       29.89F WCI   9
LIMON          LGT SNOW  17  14  88 N15       29.93S FOG     WCI   2
MONUMENT HILL  LGT SNOW  14  12  92 N8        29.86R WCI   3
TRINIDAD       LGT SNOW  20  15  81 N10       29.90S WCI   9
$$

COZ042>045-048>051-090-091-261800-
...NORTHEAST COLORADO...

CITY           SKY/WX    TMP DP  RH WIND       PRES   REMARKS
GREELEY ARPT   MOSUNNY   18  12  79 N7        30.01R WCI   8
AKRON          LGT SNOW  17  14  88 N13       29.98R FOG     WCI   4
BURLINGTON     LGT SNOW  21  17  84 N16       29.96R VSB 1   WCI   7
WRAY           LGT SNOW  23  20  90 N12       30.02R WCI  11
STERLING       LGT SNOW  23  19  86 N7        30.02S WCI  15
HOLYOKE        LGT SNOW  25  21  86 N13       30.02S WCI  13
FORT MORGAN    LGT SNOW  19  15  84 N8        30.02R WCI   8
$$

COZ086-089-092>099-261800-
...SOUTHEAST COLORADO...

CITY           SKY/WX    TMP DP  RH WIND       PRES   REMARKS
PUEBLO         CLOUDY    24  16  71 NE9       29.96R WCI  14
LA JUNTA       LGT SNOW  25  20  81 N8        29.97R WCI  16
LAMAR          LGT SNOW  26  22  84 N9        29.96F FOG     WCI  17
SPRINGFIELD      N/A     23  20  88 N15       29.93R WCI  10
$$


USA.gov is the U.S. government's official web portal to all federal, state and local government web resources and services.